Location: Unnamed
(47.6264°N, 122.3366°W)
Time: 21:13:44
(UTC-07:00)

ELYUSIUM/LOWER FREE FLYE - Pass Details

Date: 06 August 2020
Orbit: 571 x 589 km, 97.7° (Epoch: 21 September)

Event Time Altitude Azimuth Distance (km) Brightness Sun altitude
Exits shadow 00:10:52 14° 255° (WSW) 1,638 ? -24.2°
Maximum altitude 00:11:48 15° 270° (W) 1,591 ? -24.3°
Drops below altitude 10° 00:14:09 10° 305° (NW) 1,888 ? -24.4°
Sets 00:17:10 0° 330° (NNW) 2,796 ? -24.5°
